Stations météo

réclame
Mon MeteoGroup
Charleroi/Gosselies, Belgique (6449): Température de l'air & dewpoint: 27.05.2020 00:00:00 - 02.06.2020 00:00:00 (CEST)Charleroi/Gosselies, Belgique (6449): Vitesse du vent & gusts: 27.05.2020 00:00:00 - 02.06.2020 00:00:00 (CEST)Charleroi/Gosselies, Belgique (6449): Direction du vent: 27.05.2020 00:00:00 - 02.06.2020 00:00:00 (CEST)Charleroi/Gosselies, Belgique (6449): reduced air pressure: 27.05.2020 00:00:00 - 02.06.2020 00:00:00 (CEST)Charleroi/Gosselies, Belgique (6449): visibility: 27.05.2020 00:00:00 - 02.06.2020 00:00:00 (CEST)
Date & Time tt [°C] td [°C] ff [km/h] ff [knt] fx [km/h] fx [knt] dd ppp [hPa] vv [km]
02.06.2020 00:00:00 18,2 6,5 13 7 18 10 NE 1020,0 10
01.06.2020 23:00:00 19,2 6,6 15 8 - - NE 1019,5 10
01.06.2020 22:00:00 20,9 7,3 15 8 25 14 NE 1019,0 10
01.06.2020 21:00:00 22,8 7,4 16 9 29 16 NE 1018,6 10
01.06.2020 20:00:00 23,3 7,7 18 10 - - NE 1018,6 10
01.06.2020 19:00:00 24,3 7,8 21 11 32 18 NE 1018,6 10
01.06.2020 18:00:00 25,4 7,9 22 12 40 21 NE 1018,7 10
01.06.2020 17:00:00 25,2 7,3 21 11 - - ENE 1019,0 10
01.06.2020 16:00:00 25,0 7,4 21 11 40 21 NE 1019,5 10
01.06.2020 15:00:00 24,4 7,4 18 10 43 23 ENE 1019,8 10
01.06.2020 14:00:00 23,8 7,2 21 11 - - ENE 1020,2 10
01.06.2020 13:00:00 23,0 6,9 21 11 40 21 NE 1020,7 10
01.06.2020 12:00:00 22,2 6,7 18 10 32 18 E 1020,9 10
01.06.2020 11:00:00 20,1 6,0 18 10 - - ENE 1021,4 10
01.06.2020 10:00:00 18,8 5,7 15 8 25 14 ENE 1021,8 10
01.06.2020 09:00:00 16,5 7,0 18 10 25 14 ENE 1021,9 10
01.06.2020 08:00:00 14,1 6,0 11 6 - - ENE 1021,6 10
01.06.2020 07:00:00 12,1 6,4 8 4 11 6 ENE 1021,8 10
01.06.2020 06:00:00 11,2 6,2 9 5 11 6 ENE 1021,7 10
01.06.2020 05:00:00 11,5 5,6 5 3 - - ENE 1021,8 10
01.06.2020 04:00:00 12,5 5,9 5 3 11 6 ENE 1021,8 10
01.06.2020 03:00:00 13,0 5,9 9 5 14 8 E 1021,9 10
01.06.2020 02:00:00 13,3 5,5 9 5 - - E 1021,9 10
01.06.2020 01:00:00 14,4 5,4 13 7 18 10 ENE 1021,7 10
01.06.2020 00:00:00 14,8 5,2 13 7 22 12 NE 1021,6 10
31.05.2020 23:00:00 15,9 4,9 15 8 - - NE 1021,3 10
31.05.2020 22:00:00 17,1 4,6 16 9 29 16 NE 1020,8 10
31.05.2020 21:00:00 18,9 4,6 21 11 32 18 NE 1020,3 10
31.05.2020 20:00:00 19,8 3,7 22 12 - - NE 1019,9 10
31.05.2020 19:00:00 20,8 2,3 26 14 40 21 ENE 1019,8 10
31.05.2020 18:00:00 21,1 1,2 21 11 40 21 ENE 1020,1 10
31.05.2020 17:00:00 21,2 0,1 24 13 - - ENE 1020,4 10
31.05.2020 16:00:00 20,7 0,7 24 13 40 21 ENE 1020,6 10
31.05.2020 15:00:00 20,4 3,4 26 14 40 21 NE 1020,7 10
31.05.2020 14:00:00 20,4 3,7 24 13 - - ENE 1021,1 10
31.05.2020 13:00:00 20,0 2,8 26 14 36 19 NE 1021,4 10
31.05.2020 12:00:00 17,9 3,8 26 14 40 21 ENE 1021,9 10
31.05.2020 11:00:00 17,8 3,1 22 12 - - ENE 1022,1 10
31.05.2020 10:00:00 17,9 4,3 16 9 22 12 ENE 1022,2 10
31.05.2020 09:00:00 15,7 4,3 13 7 18 10 NE 1022,3 10
31.05.2020 08:00:00 14,6 3,8 8 4 - - ENE 1022,4 10
31.05.2020 07:00:00 12,0 4,3 8 4 14 8 ENE 1022,6 10
31.05.2020 06:00:00 10,5 4,2 9 5 14 8 NE 1022,5 10
31.05.2020 05:00:00 11,7 4,3 5 3 - - E 1022,0 10
31.05.2020 04:00:00 12,6 4,1 9 5 11 6 E 1022,0 10
31.05.2020 03:00:00 13,5 4,2 11 6 14 8 ENE 1021,9 10
31.05.2020 02:00:00 14,2 3,9 11 6 - - ENE 1021,9 45
31.05.2020 01:00:00 15,7 3,7 15 8 29 16 ENE 1021,7 10
31.05.2020 00:00:00 16,3 3,3 15 8 22 12 NE 1021,4 10
30.05.2020 23:00:00 17,0 4,3 13 7 - - ENE 1021,1 10
30.05.2020 22:00:00 18,8 4,4 15 8 25 14 ENE 1020,5 10
30.05.2020 21:00:00 20,4 3,7 18 10 36 19 NE 1020,0 10
30.05.2020 20:00:00 21,5 3,1 24 13 - - NE 1020,0 10
30.05.2020 19:00:00 22,8 3,2 24 13 40 21 ENE 1020,0 10
30.05.2020 18:00:00 22,9 2,7 22 12 40 21 NE 1020,2 10
30.05.2020 17:00:00 23,5 2,1 15 8 - - NE 1020,5 10
30.05.2020 16:00:00 23,2 1,9 16 9 47 25 E 1020,9 10
30.05.2020 15:00:00 23,0 1,6 22 12 40 21 ENE 1021,1 10
30.05.2020 14:00:00 23,1 1,9 16 9 - - E 1021,6 10
30.05.2020 13:00:00 21,5 0,7 13 7 36 19 E 1022,3 10
30.05.2020 12:00:00 20,4 1,6 21 11 36 19 ENE 1022,7 10
30.05.2020 11:00:00 19,9 3,0 13 7 - - ENE 1023,1 10
30.05.2020 10:00:00 17,4 3,7 13 7 22 12 E 1023,3 10
30.05.2020 09:00:00 15,5 5,6 15 8 18 10 ENE 1023,5 10
30.05.2020 08:00:00 14,0 3,9 5 3 - - ENE 1023,5 10
30.05.2020 07:00:00 12,1 3,7 4 2 7 4 - 1023,5 10
30.05.2020 06:00:00 9,8 4,1 5 3 11 6 E 1023,6 10
30.05.2020 05:00:00 10,0 3,8 9 5 - - ENE 1023,6 10
30.05.2020 04:00:00 11,1 3,9 8 4 7 4 NE 1023,7 10
30.05.2020 03:00:00 12,2 3,6 8 4 7 4 NE 1023,7 10
30.05.2020 02:00:00 13,9 3,3 5 3 - - ENE 1023,7 10
30.05.2020 01:00:00 14,0 3,7 8 4 11 6 NE 1023,7 10
30.05.2020 00:00:00 14,6 3,6 9 5 14 8 NE 1023,7 10
29.05.2020 23:00:00 16,0 3,8 11 6 - - NE 1023,5 10
29.05.2020 22:00:00 17,3 4,2 11 6 22 12 NE 1023,2 10
29.05.2020 21:00:00 19,5 2,8 16 9 29 16 NE 1023,0 10
29.05.2020 20:00:00 20,7 1,5 22 12 - - NE 1023,1 10
29.05.2020 19:00:00 21,4 0,8 21 11 32 18 NE 1023,5 10
29.05.2020 18:00:00 21,7 0,4 21 11 43 23 NE 1023,9 10
29.05.2020 17:00:00 21,7 1,9 18 10 - - NE 1024,4 10
29.05.2020 16:00:00 21,7 2,3 16 9 36 19 NNE 1024,9 10
29.05.2020 15:00:00 21,0 2,7 22 12 32 18 NE 1025,5 10
29.05.2020 14:00:00 21,3 2,5 16 9 - - ENE 1026,3 10
29.05.2020 13:00:00 20,5 2,8 16 9 29 16 NNE 1027,1 10
29.05.2020 12:00:00 19,9 2,5 15 8 29 16 NE 1027,5 10
29.05.2020 11:00:00 18,4 3,5 13 7 - - NE 1028,1 10
29.05.2020 10:00:00 16,2 4,1 13 7 22 12 ENE 1028,5 10
29.05.2020 09:00:00 13,7 4,3 13 7 22 12 NE 1028,8 10
29.05.2020 08:00:00 11,3 4,2 13 7 - - NE 1029,1 10
29.05.2020 07:00:00 9,3 3,4 11 6 14 8 NE 1029,3 10
29.05.2020 06:00:00 9,3 2,9 11 6 18 10 ENE 1029,2 10
29.05.2020 05:00:00 8,7 2,6 13 7 - - NE 1029,5 10
29.05.2020 04:00:00 10,0 2,3 13 7 18 10 ENE 1029,6 10
29.05.2020 03:00:00 11,1 1,9 11 6 14 8 ENE 1029,7 10
29.05.2020 02:00:00 11,5 2,3 11 6 - - ENE 1030,0 10
29.05.2020 01:00:00 13,1 2,4 15 8 22 12 NE 1030,1 10
29.05.2020 00:00:00 13,7 2,7 13 7 22 12 NE 1029,9 10
28.05.2020 23:00:00 15,0 2,3 15 8 - - NE 1029,7 10
28.05.2020 22:00:00 16,0 1,7 16 9 29 16 NE 1029,6 10
28.05.2020 21:00:00 17,9 1,3 21 11 36 19 NE 1029,4 10
28.05.2020 20:00:00 19,4 1,3 25 14 - - NE 1029,3 35
28.05.2020 19:00:00 20,1 1,0 24 13 40 21 ENE 1029,6 10
28.05.2020 18:00:00 20,5 1,9 26 14 40 21 NE 1029,9 10
28.05.2020 17:00:00 20,9 2,3 24 13 - - NE 1030,2 10
28.05.2020 16:00:00 20,4 2,1 26 14 40 21 NE 1030,9 10
28.05.2020 15:00:00 19,7 1,6 22 12 43 23 ENE 1031,5 10
28.05.2020 14:00:00 19,3 1,9 26 14 - - ENE 1032,0 10
28.05.2020 13:00:00 18,5 1,4 29 16 43 23 NE 1032,6 20
28.05.2020 12:00:00 17,5 4,1 26 14 40 21 ENE 1033,0 10
28.05.2020 11:00:00 15,7 6,4 26 14 - - NE 1033,3 10
28.05.2020 10:00:00 13,6 5,7 22 12 36 19 NE 1033,8 10
28.05.2020 09:00:00 11,8 5,0 24 13 32 18 NE 1033,8 10
28.05.2020 08:00:00 10,7 5,0 22 12 - - NE 1033,8 10
28.05.2020 07:00:00 9,2 4,4 18 10 29 16 NE 1033,9 10
28.05.2020 06:00:00 9,3 5,4 16 9 25 14 NE 1033,6 10
28.05.2020 05:00:00 10,0 7,5 16 9 - - NE 1033,5 10
28.05.2020 04:00:00 10,2 7,7 13 7 18 10 N 1033,6 10
28.05.2020 03:00:00 10,8 7,4 13 7 18 10 N 1033,5 10
28.05.2020 02:00:00 11,2 6,7 11 6 - - N 1033,8 10
28.05.2020 01:00:00 12,3 6,6 11 6 25 14 N 1034,0 10
28.05.2020 00:00:00 13,7 6,2 15 8 25 14 N 1033,8 10
27.05.2020 23:00:00 15,2 5,2 13 7 - - N 1033,5 10
27.05.2020 22:00:00 16,5 5,8 13 7 32 18 N 1033,1 10
27.05.2020 21:00:00 18,8 6,3 18 10 32 18 NNW 1032,3 10
27.05.2020 20:00:00 20,7 7,7 18 10 - - N 1032,0 10
27.05.2020 19:00:00 22,0 8,3 18 10 29 16 N 1031,9 10
27.05.2020 18:00:00 22,8 6,0 16 9 29 16 N 1032,1 10
27.05.2020 17:00:00 23,5 7,6 11 6 - - - 1032,3 10
27.05.2020 16:00:00 23,1 8,2 13 7 36 19 - 1032,5 10
27.05.2020 15:00:00 22,8 7,4 13 7 32 18 NNW 1033,0 10
27.05.2020 14:00:00 22,3 8,5 9 5 - - - 1033,3 10
27.05.2020 13:00:00 21,2 9,3 8 4 18 10 NW 1033,7 10
27.05.2020 12:00:00 20,3 8,9 8 4 18 10 WNW 1034,0 10
27.05.2020 11:00:00 18,9 9,2 5 3 - - NNW 1034,4 10
27.05.2020 10:00:00 17,1 9,1 8 4 14 8 NW 1034,6 10
27.05.2020 09:00:00 15,7 8,6 4 2 11 6 - 1034,7 10
27.05.2020 08:00:00 14,5 8,1 5 3 - - NE 1034,7 10
27.05.2020 07:00:00 12,7 7,0 5 3 7 4 N 1034,8 10
27.05.2020 06:00:00 12,5 6,6 5 3 11 6 N 1034,6 10
27.05.2020 05:00:00 12,5 6,2 5 3 - - N 1034,5 10
27.05.2020 04:00:00 12,5 6,7 4 2 11 6 - 1034,4 10
27.05.2020 03:00:00 13,6 6,5 8 4 11 6 N 1034,7 10
27.05.2020 02:00:00 14,6 6,6 8 4 - - N 1034,8 10
27.05.2020 01:00:00 15,2 7,3 9 5 14 8 N 1034,9 10
27.05.2020 00:00:00 16,2 7,0 9 5 14 8 N 1034,8 10

tt = Température de l'air
td = dewpoint
ff = Vitesse du vent
fx = gusts
dd = Direction du vent
ppp = reduced air pressure
vv = visibility

stations d'obs. à proximité